This is the latest recevied weather packets stored in our database for station/object KC9MWQ-13. If no packets are shown the sender has not sent any weather packets the latest 10 day(s).
| Time | Temp. | Humidity | Pressure | Rain* | Wind** | Luminosity | Snow |
|---|---|---|---|---|---|---|---|
| 1777595888 | 11.67° C | 69% | 1015 hPa | 0 mm | - | 0 W/m² | - |
| 1777595588 | 11.67° C | 68% | 1014.7 hPa | 0 mm | - | 1 W/m² | - |
| 1777595283 | 12.22° C | 67% | 1014.9 hPa | 0 mm | - | 4 W/m² | - |
| 1777594980 | 12.22° C | 66% | 1014.7 hPa | 0 mm | - | 7 W/m² | - |
| 1777594676 | 12.22° C | 67% | 1014.9 hPa | 0 mm | - | 10 W/m² | - |
| 1777594373 | 12.78° C | 68% | 1014.9 hPa | 0 mm | - | 12 W/m² | - |
| 1777594069 | 12.78° C | 68% | 1014.9 hPa | 0 mm | - | 15 W/m² | - |
| 1777593764 | 12.78° C | 66% | 1014.9 hPa | 0 mm | - | 15 W/m² | - |
| 1777593461 | 12.78° C | 66% | 1014.9 hPa | 0 mm | - | 13 W/m² | - |
| 1777593159 | 12.78° C | 66% | 1015 hPa | 0 mm | - | 10 W/m² | - |
| 1777592858 | 12.78° C | 65% | 1015 hPa | 0 mm | - | 14 W/m² | - |
| 1777592556 | 12.78° C | 64% | 1014.7 hPa | 0 mm | - | 20 W/m² | - |
| 1777592251 | 12.78° C | 65% | 1014.9 hPa | 0 mm | - | 32 W/m² | - |
| 1777591948 | 12.78° C | 63% | 1015 hPa | 0 mm | - | 46 W/m² | - |
| 1777591644 | 12.78° C | 63% | 1015.1 hPa | 0 mm | - | 46 W/m² | - |
| 1777591340 | 13.33° C | 64% | 1015.1 hPa | 0 mm | - | 49 W/m² | - |
| 1777591036 | 13.33° C | 61% | 1015.1 hPa | 0 mm | - | 50 W/m² | - |
| 1777590731 | 13.89° C | 61% | 1015.4 hPa | 0 mm | - | 63 W/m² | - |
| 1777590428 | 13.89° C | 58% | 1015.3 hPa | 0 mm | - | 96 W/m² | - |
| 1777590125 | 13.89° C | 59% | 1015.2 hPa | 0 mm | - | 101 W/m² | - |
| 1777589821 | 14.44° C | 59% | 1015.2 hPa | 0 mm | - | 70 W/m² | - |
| 1777589521 | 14.44° C | 57% | 1015.4 hPa | 0 mm | - | 122 W/m² | - |
| 1777589215 | 15° C | 56% | 1015.5 hPa | 0 mm | - | 154 W/m² | - |
| 1777588912 | 15° C | 56% | 1015.6 hPa | 0 mm | - | 147 W/m² | - |
| 1777588608 | 15.56° C | 55% | 1015.6 hPa | 0 mm | - | 173 W/m² | - |
* Rain latest hour (hover to see other rain measurements)
** Current wind speed in m/s (hover to see current wind gust speed)